Thomson, GA

6:11 AM EST on December 12, 2019 (GMT -0500)
Thomson-McDuffie County

Weather History for KHQU - October, 2019

Change the Weather History Date:

Sunday, October 20, 2019

  Actual Average (KDNL) Record (KDNL)
Temperature  
Mean Temperature 66 °F -  
Max Temperature 78 °F 72 °F 88 °F (2016)
Min Temperature 55 °F 53 °F 42 °F (1996)
Cooling Degree Days 2    
Growing Degree Days 16 (Base 50)    
Moisture  
Dew Point 61 °F    
Average Humidity 90    
Maximum Humidity 100    
Minimum Humidity 62    
Precipitation  
Precipitation 0.28 in - - ()
Sea Level Pressure  
Sea Level Pressure 29.83 in    
Wind  
Wind Speed 7 mph (North)    
Max Wind Speed 12 mph    
Max Gust Speed 17 mph    
Visibility 8 miles    
Events Rain , Thunderstorm    
Averages and records for this station are not official NWS values.
T = Trace of Precipitation, MM = Missing Value Source: NWS Daily Summary

Daily Weather History Graph

Daily Weather History Graph

Search for Another Location

Airport or City:

Astronomy

Oct. 20, 2019 Rise Set
Actual Time 7:38 AM EDT 6:50 PM EDT
Civil Twilight 7:13 AM EDT 7:15 PM EDT
Nautical Twilight 6:44 AM EDT 7:44 PM EDT
Astronomical Twilight 6:15 AM EDT 8:13 PM EDT
Moon No Moon Rise 1:53 PM EDT (10/20)
Length of Visible Light 12h 02m
Length of Day
11h 12m
Waning Gibbous, 59% of the Moon is Illuminated
Oct 20
Waning Gibbous
Oct 21
Last Quarter
Oct 27
New
Nov 4
First Quarter
Nov 12
Full

Hourly Weather History & Observations

Time (EDT) Temp. Dew Point Humidity Pressure Visibility Wind Dir Wind Speed Gust Speed Precip Events Conditions
12:15 AM 60.8 °F 60.6 °F 99% 29.68 in 4.0 mi East 10.4 mph - 0.03 in Rain Rain
12:35 AM 60.1 °F 59.5 °F 98% 29.68 in 4.0 mi ENE 10.4 mph 17.3 mph 0.10 in Rain Heavy Rain
12:55 AM 59.2 °F 59.0 °F 99% 29.66 in 3.0 mi East 11.5 mph - 0.22 in Rain , Thunderstorm Rain
1:15 AM 58.5 °F 58.1 °F 99% 29.66 in 3.0 mi East 9.2 mph 17.3 mph 0.01 in Rain , Thunderstorm Light Thunderstorms and Rain
1:35 AM 58.1 °F 57.6 °F 98% 29.66 in 10.0 mi East 11.5 mph 17.3 mph 0.01 in Rain Light Rain
1:55 AM 57.9 °F 57.6 °F 99% 29.66 in 10.0 mi East 10.4 mph - 0.01 in   Overcast
2:15 AM 57.7 °F 57.4 °F 99% 29.66 in 10.0 mi East 8.1 mph - N/A   Overcast
2:35 AM 57.6 °F 57.2 °F 99% 29.65 in 4.0 mi East 11.5 mph - N/A   Overcast
2:55 AM 57.4 °F 57.0 °F 99% 29.65 in 5.0 mi ENE 10.4 mph - N/A   Overcast
3:15 AM 57.2 °F 56.8 °F 99% 29.65 in 5.0 mi ENE 10.4 mph - N/A   Overcast
3:35 AM 57.0 °F 56.8 °F 99% 29.66 in 1.8 mi ENE 11.5 mph 16.1 mph N/A Rain Light Rain
3:55 AM 56.7 °F 56.5 °F 99% 29.66 in 1.8 mi ENE 8.1 mph - 0.01 in   Light Drizzle
4:15 AM 56.5 °F 56.3 °F 99% 29.67 in 2.0 mi ENE 6.9 mph - N/A   Light Drizzle
4:35 AM 56.5 °F 56.3 °F 99% 29.68 in 1.2 mi NE 10.4 mph - 0.01 in   Light Drizzle
4:55 AM 56.3 °F 56.1 °F 99% 29.69 in 1.2 mi NNE 8.1 mph - 0.01 in Rain Light Rain
5:15 AM 56.3 °F 56.1 °F 99% 29.71 in 1.8 mi NNE 6.9 mph - 0.01 in Rain Light Rain
5:35 AM 56.1 °F 55.9 °F 99% 29.73 in 2.0 mi NE 8.1 mph - 0.01 in   Light Drizzle
5:55 AM 55.9 °F 55.8 °F 99% 29.74 in 1.8 mi North 8.1 mph - 0.01 in   Light Drizzle
6:15 AM 55.9 °F 55.8 °F 99% 29.75 in 1.2 mi NNE 4.6 mph - 0.01 in   Light Drizzle
6:35 AM 55.9 °F 55.8 °F 99% 29.77 in 1.5 mi North 5.8 mph - 0.01 in   Light Drizzle
6:55 AM 55.9 °F 55.9 °F 100% 29.78 in 2.0 mi North 6.9 mph - 0.01 in Rain Light Rain
7:35 AM 56.3 °F 56.1 °F 99% 29.80 in 2.0 mi North 8.1 mph - N/A Rain Light Rain
7:55 AM 56.3 °F 56.1 °F 99% 29.80 in 3.0 mi North 4.6 mph - N/A Rain Light Rain
8:15 AM 56.5 °F 56.3 °F 99% 29.81 in 7.0 mi North 6.9 mph - N/A   Overcast
8:35 AM 56.8 °F 56.7 °F 99% 29.82 in 4.0 mi North 5.8 mph - 0.01 in   Overcast
8:55 AM 57.2 °F 57.0 °F 99% 29.83 in 10.0 mi North 5.8 mph - 0.01 in   Overcast
9:15 AM 58.1 °F 57.6 °F 98% 29.84 in 10.0 mi NNW 5.8 mph - N/A   Overcast
9:55 AM 59.5 °F 58.6 °F 97% 29.86 in 10.0 mi North 5.8 mph - N/A   Overcast
10:15 AM 60.4 °F 59.2 °F 96% 29.87 in 10.0 mi North 4.6 mph - N/A   Overcast
10:35 AM 61.5 °F 59.7 °F 94% 29.87 in 10.0 mi NNW 4.6 mph - N/A   Overcast
10:55 AM 62.8 °F 59.9 °F 90% 29.88 in 10.0 mi North 4.6 mph - N/A   Overcast
11:15 AM 64.0 °F 60.8 °F 89% 29.89 in 10.0 mi North 4.6 mph - N/A   Overcast
11:35 AM 64.2 °F 60.4 °F 87% 29.89 in 10.0 mi North 5.8 mph - N/A   Overcast
11:55 AM 64.9 °F 61.0 °F 87% 29.89 in 10.0 mi NNW 6.9 mph - N/A   Overcast
12:15 PM 64.8 °F 61.2 °F 88% 29.89 in 10.0 mi NNW 5.8 mph - N/A   Overcast
12:35 PM 64.8 °F 61.2 °F 88% 29.89 in 10.0 mi NNW 6.9 mph - N/A   Overcast
12:55 PM 65.7 °F 61.0 °F 85% 29.89 in 10.0 mi NNW 5.8 mph - N/A   Overcast
1:15 PM 66.7 °F 61.2 °F 82% 29.89 in 10.0 mi NNW 6.9 mph - N/A   Overcast
1:35 PM 69.3 °F 61.7 °F 77% 29.89 in 10.0 mi North 6.9 mph - N/A   Overcast
1:55 PM 69.8 °F 62.1 °F 76% 29.89 in 10.0 mi NNE 5.8 mph - N/A   Mostly Cloudy
2:15 PM 71.4 °F 62.4 °F 73% 29.88 in 10.0 mi NW 5.8 mph - N/A   Mostly Cloudy
2:35 PM 72.7 °F 62.4 °F 70% 29.88 in 10.0 mi NNE 4.6 mph - N/A   Mostly Cloudy
2:55 PM 74.5 °F 63.0 °F 67% 29.87 in 10.0 mi North 8.1 mph - N/A   Scattered Clouds
3:15 PM 75.6 °F 63.3 °F 66% 29.87 in 10.0 mi North 3.5 mph - N/A   Scattered Clouds
3:35 PM 75.6 °F 63.7 °F 66% 29.88 in 10.0 mi West 3.5 mph - N/A   Clear
3:55 PM 77.5 °F 64.2 °F 63% 29.88 in 10.0 mi NW 5.8 mph - N/A   Scattered Clouds
4:15 PM 78.3 °F 64.2 °F 62% 29.88 in 10.0 mi North 3.5 mph - N/A   Clear
4:35 PM 78.1 °F 64.9 °F 64% 29.88 in 10.0 mi West 3.5 mph - N/A   Scattered Clouds
4:55 PM 77.0 °F 65.1 °F 67% 29.89 in 10.0 mi SW 3.5 mph - N/A   Scattered Clouds
5:15 PM 77.2 °F 65.1 °F 66% 29.89 in 10.0 mi WNW 5.8 mph - N/A   Mostly Cloudy
5:35 PM 77.7 °F 65.5 °F 66% 29.89 in 10.0 mi WSW 3.5 mph - N/A   Scattered Clouds
5:55 PM 77.2 °F 65.7 °F 67% 29.89 in 10.0 mi West 3.5 mph - N/A   Clear
6:15 PM 75.7 °F 66.2 °F 72% 29.90 in 10.0 mi West 3.5 mph - N/A   Clear
6:35 PM 73.0 °F 66.7 °F 81% 29.90 in 10.0 mi West 3.5 mph - N/A   Clear
6:55 PM 69.8 °F 67.1 °F 91% 29.90 in 10.0 mi WSW 3.5 mph - N/A   Clear
7:55 PM 66.6 °F 65.7 °F 97% 29.92 in 10.0 mi WSW 3.5 mph - N/A   Clear
8:15 PM 66.0 °F 65.3 °F 98% 29.93 in 10.0 mi WSW 3.5 mph - N/A   Clear
8:35 PM 66.0 °F 65.5 °F 98% 29.93 in 10.0 mi Calm Calm - N/A   Clear
8:55 PM 65.7 °F 65.1 °F 98% 29.93 in 10.0 mi Calm Calm - N/A   Clear
9:15 PM 65.1 °F 64.9 °F 99% 29.94 in 10.0 mi Calm Calm - N/A   Clear
9:35 PM 64.4 °F 64.2 °F 99% 29.94 in 10.0 mi Calm Calm - N/A   Clear
9:55 PM 64.8 °F 64.4 °F 99% 29.95 in 10.0 mi Calm Calm - N/A   Clear
10:15 PM 64.4 °F 63.9 °F 98% 29.95 in 10.0 mi Calm Calm - N/A   Clear
10:35 PM 63.3 °F 63.3 °F 100% 29.96 in 7.0 mi WSW 3.5 mph - N/A   Clear
10:55 PM 63.1 °F 63.1 °F 100% 29.97 in 10.0 mi Calm Calm - N/A   Clear
11:35 PM 61.5 °F 61.5 °F 100% 29.98 in 7.0 mi WSW 4.6 mph - N/A   Clear
11:55 PM 61.5 °F 61.5 °F 100% 29.98 in 7.0 mi Calm Calm - N/A   Clear